[[{"header":{"parameterUnit":"m.s-1","parameterCategory":1,"la1":30.2991,"la2":30.254,"lo1":-89.0895,"lo2":-89.0444,"dy":0.0017,"dx":0.0017,"nx":28,"ny":28,"refTime":"2023-09-28T21:00:00:Z","depth":0,"parameterNumber":2,"parameterNumberName":"U-component_of_WINDS"},"data":[0,0,0,0,0,0,0,0,0,0,0,0,0,0,0,0,0,0,0,0,0,0,0,0,0,0,0,0,0,0,0,0,0,0,0,0,0,0,0,0,0,0,0,0,0,0,0,0,0,0,0,0,0,0,0,0,0,0,-2.4184,-2.4185,0,-2.4227,-2.4228,-2.4228,-2.4142,-2.4139,-2.4136,-2.4133,-2.4181,-2.4185,-2.4189,0,0,0,0,0,0,0,0,0,0,0,0,0,-2.4031,-2.4034,-2.4184,-2.4185,-2.4185,-2.4227,-2.4228,-2.4229,-2.4142,-2.4139,-2.4135,-2.4132,-2.418,-2.4185,-2.4189,0,0,0,0,0,0,0,0,0,0,0,0,0,-2.4089,-2.4035,-2.4184,-2.4147,-2.4144,-2.4227,-2.4228,-2.4229,-2.4143,-2.4139,-2.4134,-2.4131,-2.4179,-2.4184,-2.419,-2.4312,0,0,-2.4208,-2.4211,0,0,0,0,0,0,0,0,-2.4085,-2.4094,-2.4152,-2.415,-2.4147,-2.4175,-2.4191,-2.4257,-2.4144,-2.4144,-2.4133,-2.4128,-2.4183,-2.4188,-2.4206,-2.4314,-2.4316,-2.4209,-2.4212,-2.4215,-2.4216,0,0,0,0,0,0,0,-2.4081,-2.4092,-2.4201,-2.4153,-2.415,-2.413,-2.4133,-2.4204,-2.4187,-2.4143,-2.4137,-2.4143,-2.4181,-2.42,-2.4206,-2.4317,-2.4208,-2.4214,-2.4217,-2.422,-2.4531,-2.4535,0,0,0,0,0,0,-2.4082,-2.4089,-2.42,-2.4203,-2.4105,-2.4136,-2.414,-2.417,-2.4186,-2.4184,-2.4147,-2.4139,-2.4192,-2.4199,-2.4208,-2.4353,-2.4215,-2.422,-2.4224,-2.4526,-2.4532,-2.4537,0,0,0,0,0,0,-2.4079,-2.4092,-2.4198,-2.4144,-2.4156,-2.4143,-2.4178,-2.4173,-2.4193,-2.4188,-2.4185,-2.417,-2.4189,-2.4199,-2.4287,-2.4353,-2.4223,-2.4228,-2.452,-2.4528,-2.4534,-2.4644,0,0,0,0,0,0,-2.4075,-2.4092,-2.4137,-2.4146,-2.4159,-2.4276,-2.4182,-2.4177,-2.4203,-2.4193,-2.4209,-2.4208,-2.4187,-2.4279,-2.4293,-2.4359,-2.4233,-2.4514,-2.4524,-2.4532,-2.4634,-2.4654,-2.467,0,0,0,0,0,-2.4069,-2.4166,-2.4139,-2.4153,-2.4215,-2.428,-2.4287,-2.426,-2.4208,-2.4254,-2.4252,-2.4207,-2.4344,-2.4288,-2.4304,-2.4373,-2.451,-2.4521,-2.4531,-2.4626,-2.465,-2.467,0,0,0,0,0,0,-2.4166,-2.4166,-2.4137,-2.4239,-2.426,-2.4265,-2.4322,-2.4286,-2.4323,-2.4312,-2.4278,-2.4283,-2.4378,-2.4384,-2.4322,-2.4493,-2.4418,-2.4433,-2.4485,-2.4508,-2.4526,-2.4522,-2.4238,0,0,0,0,0,-2.4199,-2.425,-2.4248,-2.4338,-2.435,-2.4335,-2.4362,-2.4339,-2.436,-2.4368,-2.4372,-2.4395,-2.4443,-2.4476,-2.452,-2.4635,-2.4638,-2.469,-2.4708,-2.4723,-2.4736,-2.4799,-2.4823,-2.4572,-2.4572,-2.4571,0,0,-2.4267,-2.4274,-2.4308,-2.4358,-2.4371,-2.4427,-2.4343,-2.4404,-2.4445,-2.4378,-2.4461,-2.4465,-2.4489,-2.4591,-2.4637,-2.4599,-2.4806,-2.4737,-2.4748,-2.4753,-2.4813,-2.4837,-2.4858,-2.4579,-2.4578,-2.4576,0,0,-2.4421,-2.4431,-2.4508,-2.4523,-2.4545,-2.4534,-2.4553,-2.4564,-2.4564,-2.4646,-2.4598,-2.4647,-2.473,-2.475,-2.477,-2.4934,-2.4895,-2.495,-2.5045,-2.5107,-2.5127,-2.5144,-2.5204,-2.5226,-2.4963,-2.4963,-2.4963,0,-2.4504,-2.4584,-2.4552,-2.4618,-2.4642,-2.4583,-2.4662,-2.4679,-2.4715,-2.4734,-2.4691,-2.4796,-2.4807,-2.4914,-2.4955,-2.4973,-2.4995,-2.4948,-2.5126,-2.5143,-2.5159,-2.5216,-2.5239,-2.4969,-2.4969,-2.4968,-2.4967,0,-2.4686,-2.4743,-2.4803,-2.4838,-2.4869,-2.4941,-2.4922,-2.4957,-2.4933,-2.4927,-2.5014,-2.5026,-2.5072,-2.5096,-2.5073,-2.5201,-2.5177,-2.5131,-2.5056,-2.519,-2.5243,-2.5265,-2.4979,-2.4976,-2.4974,-2.4973,0,0,-2.49,-2.4918,-2.4941,-2.4957,-2.4977,-2.5021,-2.5092,-2.5136,-2.5168,-2.5195,-2.5255,-2.5328,-2.5286,-2.531,-2.5288,-2.5343,-2.5475,-2.529,-2.529,-2.5325,-2.5619,-2.5654,-2.568,-2.5449,-2.5453,-2.5456,-2.5618,0,-2.5054,-2.5173,-2.5148,-2.5267,-2.532,-2.5266,-2.5328,-2.5348,-2.5346,-2.5392,-2.5389,-2.5442,-2.5382,-2.5396,-2.5448,-2.5448,-2.5533,-2.5435,-2.5506,-2.5509,-2.5502,-2.5707,-2.5744,-2.5896,-2.5638,-2.5641,-2.5644,0,-2.5248,-2.5282,-2.5406,-2.542,-2.5441,-2.5497,-2.5537,-2.5581,-2.5604,-2.5598,-2.5626,-2.5595,-2.5668,-2.5592,-2.5692,-2.5626,-2.5654,-2.5659,-2.5664,-2.567,-2.5585,-2.572,-2.5943,-2.5967,-2.5676,-2.5673,-2.5671,0,-2.5394,-2.5471,-2.5555,-2.557,-2.5588,-2.5629,-2.5639,-2.5657,-2.5686,-2.5722,-2.5741,-2.5785,-2.581,-2.5846,-2.5829,-2.5774,-2.5933,-2.5855,-2.5932,-2.5933,-2.5968,-2.5966,-2.62,-2.5985,-2.5985,-2.5984,-2.5984,0,-2.5568,-2.5646,-2.5621,-2.5673,-2.576,-2.5731,-2.5819,-2.5822,-2.584,-2.5893,-2.5849,-2.5901,-2.5874,-2.5925,-2.5912,-2.5998,-2.6009,-2.6008,-2.6004,-2.6013,-2.6013,-2.6031,-2.602,-2.599,-2.5989,-2.5988,-2.5987,0,-2.5745,-2.5731,-2.582,-2.583,-2.5834,-2.5898,-2.5907,-2.5957,-2.5952,-2.602,-2.6034,-2.6027,-2.6084,-2.607,-2.6132,-2.6124,-2.6233,-2.6215,-2.6225,-2.6221,-2.63,-2.6293,-2.6554,-2.6587,-2.635,-2.6352,-2.6354,0,-2.5857,-2.5916,-2.5933,-2.5965,-2.5978,-2.603,-2.606,-2.6034,-2.6068,-2.61,-2.6146,-2.6199,-2.624,-2.6334,-2.6335,-2.6384,-2.6367,-2.6455,-2.6374,-2.6382,-2.637,-2.6367,-2.6374,-2.6472,-2.6474,-2.6477,-2.6478,0,-2.6059,-2.6049,-2.6093,-2.6136,-2.6172,-2.6204,-2.6233,-2.6262,-2.624,-2.6279,-2.6337,-2.6369,-2.6433,-2.6487,-2.6532,-2.6543,-2.6509,-2.6504,-2.6525,-2.6534,-2.6538,-2.6539,-2.627,-2.6498,-2.6496,-2.6495,-2.6494,-2.6493,-2.6208,-2.6258,-2.6278,-2.6329,-2.6348,-2.6376,-2.6424,-2.6425,-2.6472,-2.6521,-2.6504,-2.657,-2.6594,-2.6651,-2.6668,-2.6721,-2.6688,-2.6718,-2.6725,-2.6733,-2.6744,-2.6529,-2.6729,-2.6729,-2.6728,-2.6728,-2.6727,0,-2.6408,-2.6418,-2.6466,-2.6507,-2.6548,-2.651,-2.654,-2.6577,-2.6636,-2.666,-2.6702,-2.6769,-2.6822,-2.6828,-2.6879,-2.692,-2.6906,-2.6934,-2.6931,-2.6935,-2.677,-2.6747,-2.6945,-2.6945,-2.6945,-2.6945,-2.6945,-2.6945,-2.6517,-2.6601,-2.6595,-2.6689,-2.6699,-2.6763,-2.6783,-2.681,-2.683,-2.6907,-2.695,-2.6953,-2.6971,-2.7023,-2.7071,-2.7071,-2.7093,-2.7128,-2.7123,-2.6968,-2.6946,-2.6926,-2.6905,-2.7132,-2.7133,-2.7284,-2.7285,-2.7286]},{"header":{"parameterUnit":"m.s-1","parameterCategory":1,"la1":30.2991,"la2":30.254,"lo1":-89.0895,"lo2":-89.0444,"dy":0.0017,"dx":0.0017,"nx":28,"ny":28,"refTime":"2023-09-28T21:00:00:Z","depth":0,"parameterNumber":3,"parameterNumberName":"V-component_of_WINDS"},"data":[0,0,0,0,0,0,0,0,0,0,0,0,0,0,0,0,0,0,0,0,0,0,0,0,0,0,0,0,0,0,0,0,0,0,0,0,0,0,0,0,0,0,0,0,0,0,0,0,0,0,0,0,0,0,0,0,0,0,1.9147,1.9147,0,1.9151,1.9151,1.9151,1.9184,1.9185,1.9186,1.9187,1.9186,1.9185,1.9184,0,0,0,0,0,0,0,0,0,0,0,0,0,1.9165,1.9164,1.9147,1.9147,1.9147,1.9151,1.9151,1.9151,1.9184,1.9185,1.9186,1.9187,1.9186,1.9185,1.9184,0,0,0,0,0,0,0,0,0,0,0,0,0,1.9161,1.9164,1.9147,1.9164,1.9166,1.9151,1.9151,1.9151,1.9184,1.9185,1.9186,1.9188,1.9186,1.9185,1.9184,1.9151,0,0,1.918,1.9179,0,0,0,0,0,0,0,0,1.9161,1.9161,1.9161,1.9163,1.9165,1.9168,1.9157,1.915,1.9183,1.9177,1.9187,1.9188,1.9178,1.9178,1.9176,1.9151,1.9151,1.918,1.9179,1.9179,1.9178,0,0,0,0,0,0,0,1.9162,1.9161,1.9148,1.9161,1.9163,1.917,1.9171,1.9156,1.917,1.9177,1.918,1.918,1.9179,1.9177,1.9176,1.9151,1.918,1.9179,1.9178,1.9178,1.9099,1.9097,0,0,0,0,0,0,1.916,1.9161,1.9148,1.9148,1.9166,1.9169,1.917,1.9166,1.9171,1.9173,1.9179,1.9182,1.9178,1.9177,1.9176,1.9137,1.9179,1.9177,1.9177,1.91,1.9098,1.9097,0,0,0,0,0,0,1.916,1.9159,1.9148,1.9155,1.9154,1.9167,1.9162,1.9165,1.9163,1.9172,1.9174,1.9174,1.9179,1.9178,1.9157,1.9138,1.9177,1.9176,1.9102,1.91,1.9098,1.906,0,0,0,0,0,0,1.9161,1.9159,1.9147,1.9155,1.9154,1.913,1.9161,1.9164,1.9161,1.9164,1.9168,1.9169,1.918,1.9159,1.9156,1.9137,1.9175,1.9103,1.9101,1.9098,1.9063,1.9056,1.9051,0,0,0,0,0,1.9161,1.9135,1.9146,1.9144,1.914,1.9129,1.9128,1.9142,1.9159,1.9147,1.9153,1.9169,1.9141,1.9156,1.9153,1.9133,1.9105,1.9102,1.9099,1.9065,1.9058,1.9051,0,0,0,0,0,0,1.9122,1.9136,1.9149,1.9124,1.9125,1.9134,1.9119,1.9134,1.9129,1.9132,1.9149,1.915,1.9126,1.9128,1.9145,1.9102,1.9126,1.9122,1.9101,1.9094,1.9089,1.9087,1.9174,0,0,0,0,0,1.9111,1.9102,1.9115,1.9092,1.9092,1.9106,1.9101,1.9113,1.9114,1.9114,1.9118,1.9117,1.9108,1.9102,1.9094,1.9064,1.9064,1.9049,1.9043,1.9039,1.9034,1.9018,1.9011,1.9087,1.9087,1.9087,0,0,1.9087,1.9094,1.9087,1.9084,1.9086,1.9075,1.9105,1.9093,1.9084,1.9111,1.9092,1.9096,1.9096,1.907,1.9059,1.9071,1.9014,1.9035,1.9031,1.9029,1.9014,1.9007,1.9,1.9085,1.9085,1.9086,0,0,1.9038,1.9043,1.9024,1.9027,1.903,1.904,1.9035,1.9043,1.9047,1.9028,1.9048,1.9038,1.9023,1.9022,1.9019,1.8972,1.8986,1.8969,1.8938,1.8922,1.8916,1.8911,1.8893,1.8886,1.8965,1.8965,1.8965,0,1.9007,1.8993,1.9013,1.8999,1.8997,1.9023,1.9004,1.9004,1.9004,1.9002,1.9016,1.8997,1.8999,1.8974,1.8962,1.896,1.8954,1.8967,1.8916,1.8911,1.8906,1.8889,1.8882,1.8963,1.8963,1.8963,1.8964,0,1.8955,1.8945,1.8929,1.8931,1.8927,1.8911,1.8926,1.892,1.8932,1.894,1.8921,1.8925,1.8918,1.8914,1.8925,1.889,1.8897,1.8913,1.8937,1.8896,1.888,1.8874,1.896,1.8961,1.8961,1.8962,0,0,1.8879,1.8893,1.8886,1.8887,1.8894,1.8886,1.8871,1.8866,1.886,1.886,1.8846,1.8834,1.8849,1.8847,1.8858,1.8844,1.8806,1.8863,1.8863,1.885,1.8766,1.8752,1.8744,1.8816,1.8815,1.8814,1.8765,0,1.883,1.8806,1.8823,1.8795,1.8786,1.8812,1.8798,1.88,1.8808,1.88,1.8808,1.8798,1.882,1.8818,1.8806,1.8813,1.8788,1.8817,1.8802,1.8801,1.8799,1.8736,1.8721,1.8674,1.8759,1.8758,1.8758,0,1.877,1.8769,1.874,1.875,1.8746,1.8734,1.8731,1.8724,1.8727,1.8733,1.8731,1.8747,1.8731,1.8757,1.8735,1.8754,1.8749,1.8752,1.875,1.8747,1.8775,1.8729,1.866,1.8652,1.8748,1.8749,1.875,0,1.8715,1.8707,1.8689,1.8689,1.87,1.869,1.8694,1.8699,1.8695,1.8693,1.869,1.8686,1.8682,1.8678,1.8692,1.8709,1.8667,1.8694,1.8671,1.867,1.8658,1.8658,1.8585,1.8659,1.8659,1.8659,1.8659,0,1.8658,1.8639,1.8664,1.8653,1.8632,1.8653,1.8631,1.8638,1.8642,1.8631,1.8654,1.8643,1.8663,1.8654,1.8664,1.8644,1.8643,1.8646,1.8649,1.8643,1.8642,1.8638,1.8641,1.8657,1.8658,1.8658,1.8658,0,1.8592,1.8609,1.859,1.8603,1.8606,1.859,1.86,1.8589,1.86,1.8586,1.8584,1.8599,1.8589,1.8603,1.8595,1.8602,1.8574,1.8582,1.8573,1.8575,1.855,1.8551,1.8469,1.8459,1.8541,1.8541,1.854,0,1.8553,1.854,1.8552,1.8547,1.855,1.8542,1.8539,1.8559,1.8555,1.8558,1.8547,1.854,1.8535,1.8519,1.8528,1.8522,1.8529,1.8501,1.8528,1.8523,1.8527,1.8526,1.8524,1.8495,1.8494,1.8493,1.8492,0,1.8482,1.8492,1.8487,1.8486,1.8482,1.8481,1.8482,1.8477,1.8498,1.8492,1.8484,1.848,1.8473,1.8465,1.8462,1.8465,1.8481,1.8484,1.8478,1.8471,1.8465,1.8466,1.8556,1.8485,1.8486,1.8486,1.8487,1.8487,1.8428,1.8417,1.8424,1.8418,1.8421,1.8422,1.8413,1.8422,1.8416,1.8413,1.8426,1.8414,1.8418,1.8416,1.8417,1.8407,1.8419,1.8411,1.8408,1.8405,1.8401,1.8469,1.8407,1.8407,1.8407,1.8408,1.8408,0,1.8356,1.8363,1.8358,1.8359,1.8354,1.8374,1.8376,1.837,1.836,1.8363,1.8359,1.8349,1.8343,1.8352,1.8347,1.8337,1.8345,1.8335,1.8335,1.8335,1.8391,1.8396,1.8329,1.8329,1.8329,1.8329,1.8329,1.8329,1.8319,1.8301,1.8311,1.8295,1.8301,1.8291,1.8291,1.8291,1.8294,1.8283,1.8278,1.8285,1.8291,1.8286,1.828,1.8283,1.8279,1.8266,1.8272,1.8323,1.8331,1.8338,1.8343,1.8266,1.8266,1.8216,1.8216,1.8215]}]]